星链-32240 (STARLINK-32240)

导读 | 星芒AI

STARLINK-32240 是 SpaceX Starlink 项目中的一颗低轨通信卫星,旨在为全球用户提供高速互联网服务。该卫星属于 Starlink 群体部署计划的一部分,通常通过 Falcon 9 火箭发射入轨。它运行在约 550 公里的轨道高度,采用先进的推进和通信技术,支持宽带连接,尤其服务于偏远地区。Starlink 卫星群的建设目标是改善全球网络覆盖,促进数字包容性。

基本信息
目录编号:
60438
目录名称:
STARLINK-32240
国际标识:
2024-144P
轨道中心:
EARTH
卫星名称:
星链-32240 (STARLINK-32240)
卫星全名:
星链-32240 (STARLINK-32240)
卫星状态:
在轨 (已飞行448 天)
发射日期:
2024-08-12 UTC
国别 :
美国 (US)
星等 :
--
轨道信息
数据来源 国际轨道数据
星历时间: 2025-11-02T05:16:30+0800
1天前
查看轨道信息
半长轴: 6853.449km
偏心率: 0.0001175
轨道倾角: 53.160°
近地点辐角 78.560°
升交点赤经 90.644°
平近点角 281.554°
近地点: 474.508km
远地点: 476.12km
周期: 94.107分钟
每日圈数: 15.301678
详细信息
卫星平台:
Starlink v2.0 mini
运营商:
太空探索技术公司
运营商所在国:
美国
制造商(研发单位):
太空探索技术公司
制造商所在国:
美国
使用方式:
暂无
卫星简介
星链(Starlink)计划是由太空探索技术公司(SpaceX)提出的一个巨型低轨卫星互联网星座项目,计划在2019年至2024年间在太空搭建由约1.2万颗卫星组成的“星链”网络,其中1584颗将部署在地球上空550千米处的近地轨道,并从2020年开始工作。该卫星仍在工作。
2D轨道图
3D轨道图
轨道高度分析图
轨道倾角分析图
轨道综合分析图
查看轨道综合分析图